Regional Weather Roundup
Issued by NWS

Home | Current Version | Previous Version | Graphics & Text | Print | Product List | Glossary On
Versions: 1 2 3 4 5 6 7 8 9 10 11 12 13 14 15 16 17 18 19 20 21 22 23 24 25 26 27 28 29 30 31 32 33 34 35 36 37 38 39 40 41 42 43 44 45 46 47 48 49 50
000
ASUS45 KTFX 200719
RWRMT
MONTANA HOURLY WEATHER ROUNDUP
NATIONAL WEATHER SERVICE GREAT FALLS MT
1219 AM MST SAT DEC 20 2014

NOTE: "FAIR" INDICATES FEW OR NO CLOUDS BELOW 12000 FEET WITH NO
SIGNIFICANT WEATHER AND/OR OBSTRUCTIONS TO VISIBILITY.

* THESE STATIONS ARE NOT UNDER NWS QUALITY CONTROL. THEY DO NOT
   REPORT WEATHER SUCH AS PRECIPITATION OR FOG.

MTZ001>007-043-200800-
WEST OF THE DIVIDE
CITY           SKY/WX    TMP DP  RH WIND       PRES   REMARKS
KALISPELL      CLOUDY    36  34  92 S9        29.95R WCI  29
MISSOULA       FOG       28  28 100 CALM      30.03R VSB M1/4
BUTTE          CLOUDY    27  23  85 N6        29.97R WCI  20
MULLAN PASS    LGT SNOW  27  23  85 SW8       29.92F VSB 3    WCI  19
* ESSEX        N/A       32  31  96 N/A        N/A
* EUREKA APT   PTCLDY    39  30  70 S6        29.96R WCI  35
* HAMILTON APT PTCLDY    36  23  59 SE5       30.02R WCI  32
* LIBBY APT    CLEAR     30  30 100 CALM      29.99R VSB 1/2
* LINCOLN      N/A       32  27  82 SW5G12     N/A   WCI  27
* LOOKOUT PASS N/A       30  28  92 NE2G8      N/A
* POLSON       N/A       31  31 100 SE2        N/A
* RONAN APT    PTCLDY    34  34 100 N/A        N/A
* SEELEY LAKE  N/A       26  25  96 E2         N/A
* THOMP F APT  CLEAR     27  26  96 S4G9       N/A
$$

MTZ008-052>055-200800-
SOUTHWEST MONTANA
CITY           SKY/WX    TMP DP  RH WIND       PRES   REMARKS
BOZEMAN        CLOUDY    28  27  96 E7        29.96R WCI  21
DILLON         PTCLDY    28  21  75 S12       29.98R WCI  18
* W YELLOWSTON MOCLDY    28  26  92 SW5G15     N/A   WCI  22
* THREE FORKS  MOCLDY    37  37 100 N/A        N/A
* BOULDER HILL N/A       30  22  72 SW4        N/A
* MONIDA PASS  N/A       26  26 100 SE14       N/A   WCI  14
* RAYNOLDS PAS N/A       29   9  43 SE6        N/A   WCI  23
* WHITEHALL    N/A       37  30  76 SW7        N/A   WCI  32
* WISE RIVER   N/A       29  26  89 W7         N/A   WCI  22
$$

MTZ009>010-012-014-046-048-049-054-200800-
EAST SLOPES AND CENTRAL MONTANA
CITY           SKY/WX    TMP DP  RH WIND       PRES   REMARKS
CUT BANK       CLOUDY    36  27  70 W22       29.78F WCI  25
GREAT FALLS    MOCLDY    37  27  67 SW18      29.85R WCI  27
HELENA         CLOUDY    37  28  70 VRB3      29.95R
MALMSTROM AFB  MOCLDY    39  28  65 SW26G31   29.86R WCI  28
* CONRAD       MOCLDY    36  28  73 SW10G15    N/A   WCI  29
* DEARBORN     N/A       42  24  49 SE7G17     N/A
* EAST GLACIER N/A       32  24  72 SW13G18    N/A   WCI  22
* MONARCH      N/A       34  17  50 SW17G24    N/A   WCI  23
* PENDROY      N/A       32  21  64 NW10       N/A   WCI  24
* ROGERS PASS  N/A       30  23  75 SE6G15     N/A   WCI  24
* SWEET GRASS  N/A       34  25  70 W27G34     N/A   WCI  21
* WHITE SULPH  N/A       32  29  89 SW6G25     N/A   WCI  26
$$

MTZ011-013-016-021-035-040-045-047-050-051-200800-
NORTH CENTRAL MONTANA
CITY           SKY/WX    TMP DP  RH WIND       PRES   REMARKS
HAVRE          CLOUDY    34  32  92 SW10      29.80R WCI  26
LEWISTOWN      PTCLDY    37  27  67 SW15      29.84S WCI  28
* N BAR RANCH  CLEAR     41  23  49 W8G20     29.84S
* CHINOOK      CLOUDY    32  30  92 CALM      29.81S
* CHESTER      N/A       27  25  92 W2         N/A
* DENTON       N/A       34  28  79 SW14       N/A   WCI  24
* GEYSER       N/A       38  22  53 SW17G23    N/A   WCI  29
* JUDITH GAP   N/A       35  29  79 N2         N/A
* LOMA         N/A       38  30  73 W9         N/A   WCI  32
$$

MTZ017>020-022>027-061-062-200800-
NORTHEAST MONTANA
CITY           SKY/WX    TMP DP  RH WIND       PRES   REMARKS
GLASGOW        CLOUDY    30  27  89 E13       29.81F WCI  20
GLENDIVE       CLOUDY    28  25  89 SW6       29.87S WCI  21
JORDAN         CLOUDY    30  27  89 CALM      29.81F
SIDNEY         CLEAR     18  14  84 CALM      29.89F
WOLF POINT     CLOUDY    25  21  85 NE7       29.86F WCI  17
* BEAVER HILL  N/A       32  22  67 S9         N/A   WCI  24
* CIRCLE       N/A       34  28  79 N/A        N/A
* LINDSAY DVD  N/A       32  25  75 S4         N/A
* NAVAJO       N/A       18  16  92 S4         N/A
* PLENTYWOOD A PTCLDY    16  14  92 CALM      29.85F VSB M1/4
* POPLAR APT   PTCLDY    19  18  96 NE3       29.86F
* SACO         N/A       29  26  89 SE2        N/A
$$

MTZ028>042-056>058-200800-
SOUTHCENTRAL AND SOUTHEAST MONTANA
CITY           SKY/WX    TMP DP  RH WIND       PRES   REMARKS
BAKER          CLOUDY    27  25  92 CALM      29.87F
BILLINGS       MOCLDY    34  21  59 SW13      29.90S WCI  25
LIVINGSTON     CLOUDY    41  25  53 W22G32    29.90F
MILES CITY     CLOUDY    30  23  75 SE6       29.86F WCI  24
* FORSYTH APT  CLOUDY    36  25  64 CALM      29.86F
* LAUREL APT   MOCLDY    30  16  56 S5         N/A   WCI  25
* ROUNDUP APT  MOCLDY    36  25  64 S9         N/A   WCI  29
* ALZADA       N/A       28  23  81 NW4        N/A
* HYSHAM       N/A       37  19  48 W5G11      N/A   WCI  33
* LAME DEER    N/A       37  17  44 W6         N/A   WCI  32
* REED POINT   N/A       26  23  88 N/A        N/A
* ROSCOE HILL  N/A       37  10  33 W3         N/A
$$

REGIONAL REPORTS...DAKOTAS
CITY           SKY/WX    TMP DP  RH WIND       PRES   REMARKS
WILLISTON      FOG       12  12 100 CALM      29.89F VSB M1/4
DICKINSON      PTCLDY    21  18  88 S3        29.87S
BEACH          PTCLDY    23  23 100 SE5       29.87F WCI  16
CROSBY         FOG       18  18 100 SE5       29.90F VSB M1/4 WCI  11
TIOGA          FOG       10  10 100 CALM      29.92S VSB 1/2
WATFORD CITY   CLEAR     14  12  92 CALM      29.87F
BISMARCK       FOG       16  14  92 NE5       29.96S VSB 3/4  WCI   8
GRAND FORKS    CLOUDY    30  28  92 S5        29.99F WCI  25
FARGO          CLOUDY    30  28  92 S7        30.01S WCI  23
BUFFALO SD     PTCLDY    28  19  69 W3        29.82F
RAPID CITY     PTCLDY    25  16  69 CALM      29.90F
$$

REGIONAL REPORTS...WYOMING/IDAHO/WASHINGTON
CITY           SKY/WX    TMP DP  RH WIND       PRES   REMARKS
GILLETTE       PTCLDY    34  21  59 VRB3      29.88F
SHERIDAN       CLOUDY    28  21  75 CALM      29.90R
CODY           PTCLDY    39  23  53 W10G21    29.92S WCI  32
YELLOWSTONE LA MOCLDY    27  21  78 VRB5      30.01F WCI  21
SALMON         PTCLDY    25  21  85 SE6       30.04S WCI  18
MULLAN PASS    LGT SNOW  27  23  85 SW8       29.92S VSB 3    WCI  19
SAND POINT     CLOUDY    36  36 100 SW3       30.00S
SPOKANE        LGT RAIN  37  36  96 SE6       29.98F WCI  32
$$

REGIONAL REPORTS...ALBERTA
CITY           SKY/WX    TMP DP  RH WIND       PRES   REMARKS
CALGARY        PTCLDY    34  23  64 CALM      29.70R
MEDICINE HAT   FAIR      36  32  85 SW9       29.71F WCI  29
EDMONTON       MOCLDY    21  18  88 S2        29.68S
WATERTON GATE  N/A       36  23  59 SW12G18    N/A   WCI  28
CARDSTON       N/A       37  25  62 W20G26     N/A   WCI  27
MILK RIVER     N/A       36  27  70 W21G26     N/A   WCI  25
$$

REGIONAL REPORTS...SASKATCHEWAN
CITY           SKY/WX    TMP DP  RH WIND       PRES   REMARKS
SWIFT CURRENT  N/A       30  27  89 S15G21    29.70F WCI  19
REGINA         FOG       16  14  92 SE13      29.86F VSB 1/4  WCI   2
VAL MARIE      N/A       25  25 100 SW2        N/A
ASSINIBOIA     N/A       21  19  92 SE6        N/A   WCI  13
CORONACH       N/A       23  23 100 SE3        N/A

$$




USA.gov is the U.S. government's official web portal to all federal, state and local government web resources and services.